Weather History for VTUU - November, 2013

Change the Weather History Date:

Friday, November 1, 2013

  Actual Average Record
Temperature  
Mean Temperature 81 °F -  
Max Temperature 91 °F 87 °F - ()
Min Temperature 71 °F 68 °F - ()
Cooling Degree Days 16    
Growing Degree Days 31 (Base 50)    
Moisture  
Dew Point 69 °F    
Average Humidity 68    
Maximum Humidity 94    
Minimum Humidity 39    
Precipitation  
Precipitation 0.00 in 0.03 in - ()
Sea Level Pressure  
Sea Level Pressure 29.87 in    
Wind  
Wind Speed 3 mph ()    
Max Wind Speed 7 mph    
Max Gust Speed -    
Visibility 5.8 miles    
Events      
T = Trace of Precipitation, MM = Missing Value Source: Averaged Metar Reports

Daily Weather History Graph

Daily Weather History Graph

Search for Another Location

Airport or City:

Trip Planner

Search our weather history database for the weather conditions in past years. The results will help you decide how hot, cold, wet, or windy it might be!

Date:

Astronomy

Nov. 01, 2013 Rise Set
Actual Time 5:56 AM ICT 5:31 PM ICT
Civil Twilight 5:34 AM ICT 5:53 PM ICT
Nautical Twilight 5:08 AM ICT 6:18 PM ICT
Astronomical Twilight 4:43 AM ICT 6:44 PM ICT
Moon 3:36 AM ICT (11/1) 3:47 PM ICT (11/1)
Length of Visible Light 12h 19m
Length of Day
11h 34m
Waning Crescent, 7% of the Moon is Illuminated
Nov 1
Waning Crescent
Nov 3
New
Nov 10
First Quarter
Nov 17
Full
Nov 26
Last Quarter

Hourly Weather History & Observations

Time (ICT) Temp. Heat Index Dew Point Humidity Pressure Visibility Wind Dir Wind Speed Gust Speed Precip Events Conditions
12:00 AM 77.0 °F - 68.0 °F 74% 29.89 in 5.6 mi Calm Calm - N/A   Unknown
1:00 AM 75 °F - 69 °F 78% 29.88 in 6 mi ENE 2.3 mph - -   Mist
1:00 AM 75.2 °F - 69.8 °F 83% 29.86 in 5.6 mi ENE 2.3 mph - N/A   Unknown
3:00 AM 73.4 °F - 69.8 °F 88% 29.86 in 5.6 mi NNE 2.3 mph - N/A   Unknown
4:00 AM 73.4 °F - 69.8 °F 88% 29.86 in 5.6 mi NNE 3.5 mph - N/A   Unknown
5:00 AM 73.4 °F - 69.8 °F 88% 29.86 in 5.6 mi NE 4.6 mph - N/A   Unknown
6:00 AM 71.6 °F - 69.8 °F 94% 29.89 in 5.6 mi NNE 2.3 mph - N/A   Unknown
6:30 AM 71.6 °F - 68.0 °F 88% 29.92 in 5.6 mi NE 4.6 mph - N/A   Unknown
7:00 AM 72 °F - 68 °F 85% 29.92 in 6 mi NNE 4.6 mph - -   Mist
7:00 AM 73.4 °F - 68.0 °F 83% 29.92 in 5.6 mi NNE 4.6 mph - N/A   Unknown
8:00 AM 77.0 °F - 69.8 °F 78% 29.92 in 5.6 mi North 2.3 mph - N/A   Unknown
9:00 AM 80.6 °F 83.9 °F 69.8 °F 70% 29.95 in - ENE 6.9 mph - N/A   Clear
10:00 AM 84.2 °F 88.4 °F 69.8 °F 62% 29.95 in - North 3.5 mph - N/A   Clear
11:00 AM 86.0 °F 91.8 °F 71.6 °F 62% 29.92 in - NW 3.5 mph - N/A   Clear
12:00 PM 87.8 °F 93.8 °F 71.6 °F 58% 29.89 in 6.2 mi NW 5.8 mph - N/A   Scattered Clouds
1:00 PM 90 °F - 68 °F 39% 29.86 in 6 mi NNW 5.8 mph - -   Scattered Clouds
1:00 PM 89.6 °F 94.7 °F 69.8 °F 52% 29.83 in 6.2 mi NNW 5.8 mph - N/A   Scattered Clouds
2:00 PM 89.6 °F 93.4 °F 68.0 °F 49% 29.83 in 6.2 mi North 2.3 mph - N/A   Scattered Clouds
3:00 PM 91.4 °F 96.8 °F 69.8 °F 49% 29.80 in 6.2 mi NNE 2.3 mph - N/A   Scattered Clouds
4:00 PM 91.4 °F 94.0 °F 66.2 °F 43% 29.80 in 6.2 mi North 4.6 mph - N/A   Scattered Clouds
5:00 PM 89.6 °F 93.4 °F 68.0 °F 49% 29.77 in 6.2 mi NNW 5.8 mph - N/A   Scattered Clouds
5:30 PM 87.8 °F 92.6 °F 69.8 °F 55% 29.80 in 5.6 mi North 2.3 mph - N/A   Scattered Clouds
6:00 PM 86.0 °F 91.8 °F 71.6 °F 62% 29.80 in 5.6 mi NNE 2.3 mph - N/A   Scattered Clouds
7:00 PM 83 °F - 70 °F 56% 29.84 in 6 mi NNE 2.3 mph - -   Mist
7:00 PM 82.4 °F 87.2 °F 71.6 °F 70% 29.83 in 5.6 mi NNE 2.3 mph - N/A   Scattered Clouds
8:00 PM 80.6 °F 83.9 °F 69.8 °F 70% 29.86 in 5.6 mi NNE 2.3 mph - N/A   Scattered Clouds
9:00 PM 80.6 °F 83.9 °F 69.8 °F 70% 29.86 in 5.6 mi NNE 2.3 mph - N/A   Scattered Clouds
10:00 PM 80.6 °F 83.9 °F 69.8 °F 70% 29.86 in 5.6 mi NNE 2.3 mph - N/A   Scattered Clouds